Location: Alston School (historical)
(35.5076°N, 89.8251°W)
Time: 04:23:24
(UTC+00:00)

Cosmos 773 Rocket - Pass Details

Date: 09 December 2025
Orbit: 740 x 773 km, 74.1° (Epoch: 17 January)

Event Time Altitude Azimuth Distance (km) Brightness Sun altitude
Rises 23:19:54 0° 343° (NNW) 3,222 7.2 -7.0°
Reaches altitude 10° 23:22:16 10° 345° (NNW) 2,298 6.4 -7.4°
Maximum altitude 23:27:29 80° 72° (ENE) 782 4.0 -8.4°
Drops below altitude 10° 23:32:44 10° 160° (SSE) 2,302 6.5 -9.4°
Sets 23:35:06 0° 161° (SSE) 3,228 7.3 -9.8°
